Погода в Норфолке

США     42°01′56″N   97°25′34″W
темп.,
°C
ветер,
м/с
пор.,
м/с
влажн.,
%
обл.,
%
осадки,
мм/ч
давл.,
гПа
погр.,
м
31 июля, сб
сб3101:00+18св4998100 10.1 1018283
04:00+18ссв4799100 3.6 1018292
07:00+18ссв4798100 4.6 1018316
10:00+20ссв458549 0.1 1020505
13:00+26с4550100 0.1 10191084
16:00+30с463738 0.0 10172194
19:00+30ссв3542100 0.0 1016226
22:00+22с37453 0.0 1017121
1 августа, вс
вс101:00+19ссв39430 0.0 1020131
04:00+17с12440 0.0 102011
07:00+17с33460 0.0 102137
10:00+24с45350 0.0 1022417
13:00+29ссв45260 0.0 10211585
16:00+31ссв36222 0.0 10192868
19:00+29всв46321 0.0 1018357
22:00+20вюв36620 0.0 101977
2 августа, пн
пн201:00+17ююв33530 0.0 101923
04:00+16ююз22615 0.0 102120
07:00+15юз346158 0.0 102164
10:00+24ююз2342100 0.0 1019350
13:00+30вюв22285 0.0 10171476
16:00+32вюв34240 0.0 10152830
19:00+29вюв653675 0.0 1014585
22:00+20юв46605 0.0 101693
3 августа, вт
вт301:00+19ю41356100 0.0 1017219
04:00+18ю4116327 0.0 1017195
07:00+16ю35752 0.0 101785
10:00+26ю5747100 0.0 1017566
13:00+31ююв44305 0.0 10161796
16:00+33вюв53215 0.0 10143030
19:00+31вюв44241 0.0 1014885
22:00+23ююв514441 0.0 1016277
4 августа, ср
ср401:00+21ю616510 0.0 1016378
04:00+19юз514630 0.0 1017330
07:00+16ююз41280100 0.0 1018233
10:00+26ююз6946100 0.0 1018593
13:00+33ю772247 0.0 10162093
16:00+35ю771795 0.0 10142870
19:00+33ююв7918100 0.0 10121309
22:00+28ю61521100 0.0 1013529